DW4070 Weather Reports


time (UTC)temp
F
wind
direction
speed
knots
gust
knots
rain 1hr
in
rain 24hr
in
rain mn
in
humidity
%
barometer
mb
20260505231554 69 264 0.0 4.3 0.00 0.00 0.00 58 1009.7
20260505230058 70 185 1.7 8.7 0.00 0.00 0.00 58 1009.7
20260505224552 70 269 0.0 3.5 0.00 0.00 0.00 58 1009.3
20260505223050 70 190 0.9 5.2 0.00 0.00 0.00 56 1009.2
20260505221600 71 167 0.9 7.0 0.00 0.00 0.00 55 1009.4
20260505220100 71 224 0.9 6.1 0.00 0.00 0.00 54 1009.3
20260505214553 72 272 0.0 4.3 0.00 0.00 0.00 54 1009.2
20260505213048 72 236 0.9 5.2 0.00 0.00 0.00 54 1009.1
20260505211546 73 273 2.6 7.0 0.00 0.00 0.00 54 1009.2
20260505210051 73 284 0.9 7.8 0.00 0.00 0.00 53 1009.0
20260505204554 74 280 0.9 6.1 0.00 0.00 0.00 55 1009.2
20260505203041 74 271 0.9 6.1 0.00 0.00 0.00 56 1009.1
20260505201543 74 262 0.9 8.7 0.00 0.00 0.00 53 1009.4
20260505200039 75 181 3.5 13.0 0.00 0.00 0.00 51 1009.5
20260505194537 75 264 1.7 8.7 0.00 0.00 0.00 54 1009.7
20260505193041 75 276 2.6 7.0 0.00 0.00 0.00 52 1010.0
20260505191532 75 212 2.6 12.2 0.00 0.00 0.00 52 1010.0
20260505190029 76 275 0.9 10.4 0.00 0.00 0.00 50 1010.3
20260505184528 77 272 2.6 7.8 0.00 0.00 0.00 48 1010.5
20260505183035 78 282 0.9 7.8 0.00 0.00 0.00 49 1010.5
20260505181528 79 215 4.3 12.2 0.00 0.00 0.00 46 1010.4
20260505180024 79 268 0.0 9.6 0.00 0.00 0.00 46 1010.4
20260505174518 78 266 0.9 12.2 0.00 0.00 0.00 50 1010.6
20260505173015 77 270 1.7 7.8 0.00 0.00 0.00 46 1010.7
20260505171512 77 271 0.9 7.0 0.00 0.00 0.00 53 1010.8
20260505170011 77 286 0.9 8.7 0.00 0.00 0.00 48 1011.1
20260505164507 76 207 1.7 7.0 0.00 0.00 0.00 51 1011.4
20260505163007 76 269 0.0 4.3 0.00 0.00 0.00 49 1011.4
20260505161604 75 269 0.9 7.8 0.00 0.00 0.00 49 1011.7
20260505153107 74 269 0.0 8.7 0.00 0.00 0.00 54 1012.2
20260505151550 73 264 1.7 6.1 0.00 0.00 0.00 53 1012.3
20260505124510 57 271 0.0 1.7 0.00 0.00 0.00 86 1012.6
20260505123010 54 267 0.9 3.5 0.00 0.00 0.00 91 1012.7
20260505121502 53 267 0.0 1.7 0.00 0.00 0.00 96 1012.9
20260505120108 52 267 0.0 1.7 0.00 0.00 0.00 96 1012.8
20260505114556 50 267 0.0 0.0 0.00 0.00 0.00 96 1012.8
20260505113110 48 267 0.0 0.0 0.00 0.00 0.00 95 1012.9
20260505111553 47 267 0.0 0.0 0.00 0.00 0.00 95 1013.0
20260505101544 45 267 0.0 0.0 0.00 0.00 0.00 94 1012.3
20260505100043 45 267 0.0 0.0 0.00 0.00 0.00 94 1012.1
20260505094542 45 267 0.0 0.0 0.00 0.00 0.00 93 1012.0
20260505093043 45 267 0.0 0.0 0.00 0.00 0.00 93 1011.8
20260505091540 45 267 0.0 0.0 0.00 0.00 0.00 93 1011.9
20260505090043 45 267 0.0 0.0 0.00 0.00 0.00 93 1011.9
20260505084545 45 267 0.0 0.0 0.00 0.00 0.00 93 1011.8
20260505083046 45 267 0.0 0.0 0.00 0.00 0.00 93 1011.9
20260505081536 46 267 0.0 0.0 0.00 0.00 0.00 93 1011.9
20260505080033 46 267 0.0 0.0 0.00 0.00 0.00 93 1012.0
20260505074533 46 267 0.0 0.0 0.00 0.00 0.00 93 1011.9
20260505073033 46 267 0.0 0.0 0.00 0.00 0.00 92 1011.8
20260505071531 46 267 0.0 0.0 0.00 0.00 0.00 92 1011.7
20260505070039 46 267 0.0 0.0 0.00 0.00 0.00 92 1011.9
20260505064528 46 267 0.0 0.0 0.00 0.00 0.00 92 1011.9
20260505063031 46 267 0.0 0.0 0.00 0.00 0.00 92 1012.0
20260505061525 46 267 0.0 0.0 0.00 0.00 0.00 91 1012.1
20260505060028 47 267 0.0 0.0 0.00 0.00 0.00 91 1012.0
20260505054521 47 267 0.0 0.0 0.00 0.00 0.00 91 1012.0
20260505053021 47 267 0.0 0.0 0.00 0.00 0.00 90 1012.2
20260505051519 47 267 0.0 0.0 0.00 0.00 0.00 90 1012.2
20260505041509 48 267 0.0 0.0 0.00 0.00 0.00 88 1012.6
20260505040007 49 267 0.0 0.0 0.00 0.00 0.00 88 1012.5
20260505034507 49 267 0.0 0.0 0.00 0.00 0.00 87 1012.5
20260505033006 49 267 0.0 0.0 0.00 0.00 0.00 86 1012.5
20260505031509 50 267 0.0 0.0 0.00 0.00 0.00 85 1012.6
20260505030106 50 267 0.0 0.0 0.00 0.00 0.00 84 1012.5
20260505024505 51 267 0.0 0.0 0.00 0.00 0.00 82 1012.6
20260505023005 52 267 0.0 0.0 0.00 0.00 0.00 81 1012.6
20260505021503 52 267 0.0 0.0 0.00 0.00 0.00 79 1012.7
20260505020003 53 267 0.0 0.0 0.00 0.00 0.00 78 1012.6
20260505014504 53 267 0.0 0.0 0.00 0.00 0.00 77 1012.6
20260505013002 54 267 0.0 0.0 0.00 0.00 0.00 76 1012.4
20260505011502 55 267 0.0 0.0 0.00 0.00 0.00 74 1012.4
20260505010000 56 267 0.0 0.0 0.00 0.00 0.00 71 1012.1
20260505004612 57 267 0.0 0.0 0.00 0.00 0.00 68 1011.9
20260505003100 58 267 0.0 1.7 0.00 0.00 0.00 65 1011.6
20260505001629 59 262 0.0 2.6 0.00 0.00 0.00 63 1011.4
20260505001502 59 262 0.0 2.6 0.00 0.00 0.00 62 1011.5
20260505000110 60 281 0.9 3.5 0.00 0.00 0.00 61 1011.3
20260504234601 60 97 0.0 6.1 0.00 0.00 0.00 60 1011.1
20260504233112 61 265 0.0 2.6 0.00 0.00 0.00 57 1010.8